This demonstration page uses our WeatherBlox Daily Observations layout. Learn more.

Left ArrowRight Arrow

47.50024, -111.30081

Hourly Observations for May 29, 2015

Temp ( °F °C ) Dew Point ( °F °C ) Humidity (%) Winds ( mph kmh ) Pressure ( in mb ) Visibility ( mi km ) Precip ( " mm )
12:20 am 00:20 Cloudy with Mist and Fog 45 7 45 7 100 100 N 7 11 30.36 1028 3 4 0.00 0.00
12:53 am 00:53 Cloudy with Mist and Fog 45 7.2 44 6.7 97 97 N 5 7 30.33 1027 2 3 0.01 0.25
1:09 am 01:09 Cloudy with Mist and Fog 45 7.2 44 6.7 97 97 N 5 7 30.36 1028 2 3 0.00 0.00
1:18 am 01:18 Cloudy with Mist and Fog 45 7 45 7 100 100 N 5 7 30.36 1028 3 4 0.00 0.00
1:27 am 01:27 Cloudy with Mist and Fog 45 7.2 44 6.7 97 97 N 6 9 30.36 1028 3 4 0.00 0.00
1:53 am 01:53 Cloudy with Mist and Fog 45 7.2 44 6.7 97 97 NNE 6 9 30.32 1027 3 4 0.00 0.00
2:53 am 02:53 Cloudy with Mist and Fog 45 7.2 44 6.7 97 97 NE 5 7 30.32 1027 2 3 0.00 0.00
3:25 am 03:25 Cloudy with Mist and Fog 45 7.2 44 6.7 97 97 N 5 7 30.30 1026 2 3 0.00 0.00
3:53 am 03:53 Cloudy with Mist and Fog 45 7.2 44 6.7 97 97 NE 3 6 30.33 1027 2 3 0.00 0.00
4:53 am 04:53 Cloudy with Mist and Fog 45 7.2 44 6.7 97 97 Calm 30.33 1027 2 3 0.00 0.00
5:53 am 05:53 Cloudy with Mist and Fog 45 7.2 44 6.7 97 97 SE 6 9 30.32 1027 2 3 0.00 0.00
6:00 am 06:00 Cloudy with Mist and Fog 45 7 43 6 93 93 SE 5 7 30.27 1025 3 5 0.00 0.00
6:53 am 06:53 Cloudy with Mist and Fog 46 7.8 44 6.7 93 93 E 5 7 30.31 1026 3 5 0.00 0.00
7:50 am 07:50 Cloudy 46 8 43 6 87 87 Calm 30.27 1025 10 16 0.00 0.00
7:53 am 07:53 Cloudy 47 8.3 42 5.6 83 83 Calm 30.31 1026 10 16 0.00 0.00
8:53 am 08:53 Cloudy 47 8.3 43 6.1 86 86 ESE 6 9 30.32 1027 10 16 0.00 0.00
9:53 am 09:53 Cloudy 49 9.4 44 6.7 83 83 ENE 5 7 30.30 1026 10 16 0.00 0.00
10:00 am 10:00 Cloudy 48 9 45 7 87 87 Calm 30.24 1024 10 16 0.00 0.00
10:11 am 10:11 Cloudy 49 9.4 44 6.7 83 83 ESE 5 7 30.24 1024 10 16 0.00 0.00
10:53 am 10:53 Cloudy 50 10 45 7.2 83 83 SE 3 6 30.29 1026 10 16 0.00 0.00
11:06 am 11:06 Cloudy 52 11 45 7 77 77 VRB 6 9 30.18 1022 10 16 0.00 0.00
11:53 am 11:53 Cloudy 54 12.2 46 7.8 75 75 ENE 5 7 30.25 1024 10 16 0.00 0.00
12:53 pm 12:53 Partly Cloudy 58 14.4 47 8.3 67 67 ENE 9 15 30.21 1023 10 16 0.00 0.00
1:17 pm 13:17 Mostly Cloudy 61 16 48 9 63 63 ENE 10 17 30.09 1019 10 16 0.00 0.00
1:45 pm 13:45 Mostly Sunny 61 16.1 48 8.9 63 63 ENE 13 20 30.06 1018 10 16 0.00 0.00
1:53 pm 13:53 Mostly Sunny 62 16.7 48 8.9 60 60 E 9 15 30.18 1022 10 16 0.00 0.00
2:53 pm 14:53 Sunny 65 18.3 50 10 59 59 E 10 17 30.14 1021 10 16 0.00 0.00
3:53 pm 15:53 Sunny 67 19.4 50 10 55 55 ENE 13 20 30.11 1020 10 16 0.00 0.00
4:53 pm 16:53 Sunny 67 19.4 50 10 55 55 ENE 14 22 30.10 1019 10 16 0.00 0.00
5:53 pm 17:53 Sunny 67 19.4 50 10 55 55 ENE 12 19 30.08 1019 10 16 0.00 0.00
6:53 pm 18:53 Sunny 65 18.3 48 8.9 54 54 ESE 13 20 30.06 1018 10 16 0.00 0.00
7:53 pm 19:53 Sunny 62 16.7 48 8.9 60 60 E 17 28 30.05 1018 10 16 0.00 0.00
8:53 pm 20:53 Sunny 59 15 47 8.3 64 64 E 13 20 30.06 1018 10 16 0.00 0.00
9:53 pm 21:53 Clear 58 14.4 45 7.2 62 62 ESE 14 22 30.06 1018 10 16 0.00 0.00
10:53 pm 22:53 Clear 57 13.9 47 8.3 69 69 SE 12 19 30.06 1018 10 16 0.00 0.00
11:53 pm 23:53 Partly Cloudy 58 14.4 47 8.3 67 67 S 10 17 30.02 1017 10 16 0.00 0.00

Powered by AerisWeather